This demonstration page uses our WeatherBlox Daily Observations layout. Learn more.

Left ArrowRight Arrow

40.92501, -98.34201

Hourly Observations for June 20, 2020

Temp ( °F °C ) Dew Point ( °F °C ) Humidity (%) Winds ( mph kmh ) Pressure ( in mb ) Visibility ( mi km ) Precip ( " mm )
12:53 am 00:53 Cloudy 67 19.4 58 14.4 73 73 Calm 30.03 1017 10 16 0.00 0.00
1:53 am 01:53 Cloudy 66 18.9 59 15 78 78 SE 3 6 30.02 1017 10 16 0.00 0.00
2:53 am 02:53 Mostly Cloudy with Light Rain 65 18.3 58 14.4 78 78 E 8 13 29.95 1014 10 16 0.00 0.00
3:53 am 03:53 Clear 63 17.2 58 14.4 84 84 Calm 29.95 1014 10 16 0.00 0.00
4:32 am 04:32 Partly Cloudy 61 16.1 57 13.9 87 87 Calm 29.95 1014 10 16 0.00 0.00
4:41 am 04:41 Mostly Cloudy 62 16.7 57 13.9 84 84 Calm 29.94 1014 10 16 0.00 0.00
4:53 am 04:53 Cloudy 62 16.7 58 14.4 86 86 W 3 6 29.97 1015 10 16 0.00 0.00
5:25 am 05:25 Cloudy 63 17.2 58 14.4 84 84 Calm 29.95 1014 10 16 0.00 0.00
5:37 am 05:37 Mostly Cloudy 63 17.2 58 14.4 84 84 Calm 29.95 1014 10 16 0.00 0.00
5:53 am 05:53 Mostly Clear 63 17.2 58 14.4 84 84 Calm 29.98 1015 10 16 0.00 0.00
6:48 am 06:48 Mostly Cloudy 63 17 59 15 88 88 SW 3 6 29.97 1015 10 16 0.00 0.00
6:53 am 06:53 Mostly Cloudy 63 17.2 59 15 87 87 WSW 3 6 29.98 1015 9 14 0.00 0.00
7:09 am 07:09 Cloudy 64 17.8 59 15 84 84 W 6 9 29.97 1015 10 16 0.00 0.00
7:35 am 07:35 Mostly Cloudy 65 18.3 59 15 81 81 WNW 6 9 29.96 1015 8 13 0.00 0.00
7:46 am 07:46 Mostly Cloudy 65 18.3 59 15 81 81 NW 8 13 29.96 1015 8 13 0.00 0.00
7:53 am 07:53 Mostly Cloudy 65 18.3 59 15 81 81 W 6 9 30.00 1016 9 14 0.00 0.00
8:53 am 08:53 Mostly Cloudy 69 20.6 61 16.1 76 76 WNW 7 11 29.99 1016 7 11 0.00 0.00
9:53 am 09:53 Mostly Cloudy 71 21.7 60 15.6 68 68 VRB 7 11 29.98 1015 8 13 0.00 0.00
10:53 am 10:53 Partly Cloudy 75 23.9 59 15 58 58 VRB 6 9 29.96 1015 10 16 0.00 0.00
11:53 am 11:53 Mostly Cloudy 77 25 60 15.6 56 56 WSW 13 20 29.96 1014 10 16 0.00 0.00
12:53 pm 12:53 Mostly Cloudy 78 25.6 60 15.6 54 54 W 12 19 29.94 1014 10 16 0.00 0.00
1:53 pm 13:53 Mostly Cloudy 79 26.1 59 15 50 50 WSW 12 19 29.93 1014 10 16 0.00 0.00
2:53 pm 14:53 Mostly Sunny 82 27.8 58 14.4 44 44 SW 8 13 29.91 1013 10 16 0.00 0.00
3:53 pm 15:53 Mostly Sunny 82 27.8 58 14.4 44 44 SW 8 13 29.89 1012 10 16 0.00 0.00
4:53 pm 16:53 Mostly Sunny 83 28.3 57 13.9 41 41 S 9 15 29.87 1012 10 16 0.00 0.00
5:53 pm 17:53 Sunny 84 28.9 58 14.4 41 41 S 9 15 29.83 1010 10 16 0.00 0.00
6:53 pm 18:53 Sunny 83 28.3 57 13.9 41 41 S 14 22 29.84 1011 10 16 0.00 0.00
7:53 pm 19:53 Sunny 81 27.2 60 15.6 49 49 WNW 5 7 29.88 1012 10 16 0.00 0.00
8:46 pm 20:46 Mostly Cloudy with Nearby Thunderstorms 77 25 63 17.2 62 62 E 7 11 29.79 1009 9 14 0.00 0.00
8:53 pm 20:53 Mostly Cloudy with Nearby Thunderstorms 76 24.4 64 17.8 67 67 SSE 9 15 29.84 1010 6 10 0.00 0.00
9:35 pm 21:35 Clear 75 23.9 59 15 58 58 SE 9 15 29.79 1009 10 16 0.00 0.00
10:53 pm 22:53 Clear 72 22.2 60 15.6 66 66 SSE 8 13 29.85 1011 10 16 0.00 0.00
11:53 pm 23:53 Mostly Clear 73 22.8 62 16.7 69 69 S 8 13 29.85 1011 10 16 0.00 0.00

Powered by AerisWeather